Location: Muenchen
(48.1800°N, 11.5800°E)
Time: 17:42:12
(UTC+02:00)

ISS - Visible Passes

Search period start: 25 September 2016 00:00
Search period end: 05 October 2016 00:00
Orbit: 400 x 410 km, 51.6° (Epoch: 25 September)

Date Brightness Start Highest point End Pass type
(mag) Time Alt. Az. Time Alt. Az. Time Alt. Az.
28 Sep -1.0 20:32:32 10° S 20:33:11 13° S 20:33:11 13° S visible
29 Sep -1.1 19:42:03 10° SSE 19:43:03 11° SE 19:43:50 10° ESE visible
29 Sep -0.8 21:15:45 10° SW 21:16:32 16° SW 21:16:32 16° SW visible
30 Sep -2.7 20:23:55 10° SW 20:26:56 36° SE 20:26:59 36° SE visible
01 Oct -1.9 19:32:22 10° SSW 19:34:57 22° SE 19:37:16 12° E visible
01 Oct -1.9 21:07:54 10° WSW 21:09:57 35° WSW 21:09:57 35° WSW visible
02 Oct -3.4 20:15:47 10° WSW 20:19:02 69° SSE 20:20:05 38° E visible
02 Oct 0.1 21:52:29 10° W 21:52:45 12° W 21:52:45 12° W visible
03 Oct -2.8 19:23:50 10° SW 19:26:57 43° SSE 19:30:04 10° ENE visible
03 Oct -2.2 21:00:12 10° W 21:02:46 44° WNW 21:02:46 44° WNW visible
04 Oct -3.2 20:07:56 10° WSW 20:11:11 71° NNW 20:12:43 28° ENE visible
04 Oct -0.1 21:44:48 10° WNW 21:45:22 14° WNW 21:45:22 14° WNW visible
